Weather History for Ortonville, MN

Change the Weather History Date:

Tuesday, March 5, 2013

  Actual Average (KAQP) Record (KAQP)
Temperature  
Mean Temperature 22 °F -  
Max Temperature 26 °F 24 °F 51 °F (2005)
Min Temperature 19 °F 9 °F -16 °F (1997)
Degree Days  
Heating Degree Days 42    
Moisture  
Dew Point 19 °F    
Average Humidity 85    
Maximum Humidity 93    
Minimum Humidity 80    
Precipitation  
Precipitation 0.02 in - - ()
Sea Level Pressure  
Sea Level Pressure 30.16 in    
Wind  
Wind Speed 12 mph (North)    
Max Wind Speed 24 mph    
Max Gust Speed 31 mph    
Visibility 5 miles    
Events Snow    
Averages and records for this station are not official NWS values.
T = Trace of Precipitation, MM = Missing Value Source: NWS Daily Summary

Daily Weather History Graph

Daily Weather History Graph

Search for Another Location

Airport:

Trip Planner

Search our weather history database for the weather conditions in past years. The results will help you decide how hot, cold, wet, or windy it might be!

Date:

Astronomy

Mar. 05, 2013 Rise Set
Actual Time 6:56 AM CST 6:18 PM CST
Civil Twilight 6:26 AM CST 6:48 PM CST
Nautical Twilight 5:52 AM CST 7:22 PM CST
Astronomical Twilight 5:18 AM CST 7:56 PM CST
Moon 2:22 AM CST (3/5) 11:46 AM CST (3/5)
Length of Visible Light 12h 21m
Length of Day
11h 22m
Last Quarter, 40% of the Moon is Illuminated
Mar 5
Last Quarter
Mar 11
New
Mar 19
First Quarter
Mar 27
Full
Apr 2
Last Quarter

Hourly Weather History & Observations

Time (CST) Temp. Windchill Dew Point Humidity Pressure Visibility Wind Dir Wind Speed Gust Speed Precip Events Conditions
12:14 AM 26.6 °F 18.2 °F 24.8 °F 93% 29.90 in 2.0 mi ESE 8.1 mph - N/A   Overcast
12:33 AM 24.8 °F 15.3 °F 23.0 °F 93% 29.89 in 2.0 mi ESE 9.2 mph - N/A   Overcast
12:54 AM 24.8 °F 16.1 °F 23.0 °F 93% 29.89 in 1.8 mi ESE 8.1 mph - N/A   Mostly Cloudy
1:14 AM 24.8 °F 17.9 °F 23.0 °F 93% 29.91 in 1.2 mi ESE 5.8 mph - N/A   Overcast
1:33 AM 24.8 °F 20.5 °F 23.0 °F 93% 29.91 in 1.0 mi ESE 3.5 mph - N/A   Overcast
1:54 AM 24.8 °F 19.1 °F 23.0 °F 93% 29.91 in 1.0 mi SE 4.6 mph - N/A Snow Light Snow
2:14 AM 24.8 °F 19.1 °F 23.0 °F 93% 29.91 in 1.5 mi East 4.6 mph - N/A Snow Light Snow
2:34 AM 24.8 °F 19.1 °F 23.0 °F 93% 29.92 in 1.8 mi East 4.6 mph - N/A Snow Light Snow
2:54 AM 24.8 °F - 21.2 °F 86% 29.92 in 2.0 mi Calm Calm - N/A Snow Light Snow
3:14 AM 24.8 °F 20.5 °F 21.2 °F 86% 29.93 in 2.0 mi NE 3.5 mph - N/A   Overcast
3:34 AM 24.8 °F 20.5 °F 21.2 °F 86% 29.93 in 2.0 mi NNE 3.5 mph - N/A Snow Light Snow
3:54 AM 24.8 °F 19.1 °F 21.2 °F 86% 29.93 in 2.0 mi NNE 4.6 mph - N/A   Overcast
4:14 AM 24.8 °F 19.1 °F 21.2 °F 86% 29.94 in 1.5 mi NNE 4.6 mph - N/A   Overcast
4:34 AM 24.8 °F 20.5 °F 21.2 °F 86% 29.95 in 1.0 mi North 3.5 mph - 0.01 in   Overcast
4:54 AM 24.8 °F 17.9 °F 21.2 °F 86% 29.96 in 0.8 mi NW 5.8 mph - 0.02 in Snow Snow
5:14 AM 24.8 °F 14.0 °F 21.2 °F 86% 29.98 in 1.2 mi NNW 11.5 mph - N/A Snow Light Snow
5:34 AM 23.0 °F 9.6 °F 21.2 °F 93% 29.99 in 1.2 mi North 16.1 mph - N/A Snow Light Snow
5:54 AM 23.0 °F 9.2 °F 19.4 °F 86% 30.00 in 2.5 mi North 17.3 mph - N/A Snow Light Snow
6:14 AM 21.2 °F 6.8 °F 19.4 °F 93% 30.01 in 5.0 mi North 17.3 mph - N/A   Overcast
7:13 AM 21.2 °F 7.3 °F 19.4 °F 93% 30.04 in 4.0 mi North 16.1 mph 20.7 mph N/A Snow Light Snow
7:34 AM 21.2 °F 7.8 °F 19.4 °F 93% 30.05 in 1.2 mi NNW 15.0 mph - N/A Snow Light Snow
7:54 AM 23.0 °F 9.6 °F 19.4 °F 86% 30.07 in 1.5 mi NNW 16.1 mph 21.9 mph N/A Snow Light Snow
8:13 AM 23.0 °F 8.7 °F 19.4 °F 86% 30.08 in 2.5 mi NNW 18.4 mph - N/A Snow Light Snow
8:34 AM 23.0 °F 9.6 °F 19.4 °F 86% 30.09 in 3.0 mi NNW 16.1 mph 23.0 mph N/A Snow Light Snow
8:54 AM 23.0 °F 10.1 °F 19.4 °F 86% 30.10 in 1.8 mi NNW 15.0 mph - N/A Snow Light Snow
9:13 AM 24.8 °F 11.5 °F 19.4 °F 80% 30.11 in 3.0 mi NNW 17.3 mph 23.0 mph N/A Snow Light Snow
9:34 AM 23.0 °F 8.3 °F 19.4 °F 86% 30.11 in 3.0 mi NNW 19.6 mph - N/A Snow Light Snow
9:54 AM 24.8 °F 10.7 °F 19.4 °F 80% 30.12 in 4.0 mi NNW 19.6 mph 26.5 mph N/A   Haze
10:13 AM 24.8 °F 10.7 °F 19.4 °F 80% 30.13 in 4.0 mi NNW 19.6 mph 25.3 mph N/A   Haze
10:34 AM 24.8 °F 11.9 °F 19.4 °F 80% 30.14 in 4.0 mi NNW 16.1 mph 26.5 mph N/A   Haze
10:54 AM 24.8 °F 10.3 °F 19.4 °F 80% 30.15 in 2.0 mi NNW 20.7 mph 28.8 mph N/A   Haze
11:14 AM 24.8 °F 9.3 °F 19.4 °F 80% 30.16 in 2.0 mi NNW 24.2 mph 29.9 mph N/A   Haze
11:34 AM 24.8 °F 9.6 °F 19.4 °F 80% 30.17 in 3.0 mi NNW 23.0 mph 31.1 mph N/A   Haze
11:53 AM 24.8 °F 11.1 °F 19.4 °F 80% 30.17 in 4.0 mi NNW 18.4 mph 29.9 mph N/A   Haze
12:14 PM 24.8 °F 9.6 °F 19.4 °F 80% 30.18 in 3.0 mi NNW 23.0 mph 31.1 mph N/A   Haze
12:34 PM 24.8 °F 10.7 °F 19.4 °F 80% 30.19 in 3.0 mi NNW 19.6 mph 31.1 mph N/A   Haze
12:54 PM 24.8 °F 10.0 °F 19.4 °F 80% 30.20 in 2.0 mi NNW 21.9 mph 31.1 mph N/A   Haze
1:14 PM 24.8 °F 10.0 °F 19.4 °F 80% 30.21 in 3.0 mi NNW 21.9 mph 27.6 mph N/A   Haze
1:34 PM 24.8 °F 10.0 °F 19.4 °F 80% 30.21 in 3.0 mi NNW 21.9 mph 31.1 mph N/A   Haze
1:54 PM 24.8 °F 10.0 °F 19.4 °F 80% 30.21 in 3.0 mi NNW 21.9 mph 28.8 mph N/A   Haze
2:14 PM 24.8 °F 10.0 °F 19.4 °F 80% 30.21 in 3.0 mi NNW 21.9 mph 28.8 mph N/A   Haze
2:34 PM 24.8 °F 10.0 °F 19.4 °F 80% 30.22 in 3.0 mi NNW 21.9 mph 28.8 mph N/A   Haze
2:54 PM 24.8 °F 10.7 °F 19.4 °F 80% 30.23 in 4.0 mi NNW 19.6 mph 26.5 mph N/A   Haze
3:13 PM 23.0 °F 8.0 °F 19.4 °F 86% 30.23 in 3.0 mi North 20.7 mph 27.6 mph N/A   Overcast
3:34 PM 23.0 °F 8.3 °F 19.4 °F 86% 30.24 in 4.0 mi NNW 19.6 mph 25.3 mph N/A   Overcast
3:53 PM 23.0 °F 8.3 °F 17.6 °F 80% 30.25 in 5.0 mi NNW 19.6 mph 26.5 mph N/A   Haze
4:14 PM 23.0 °F 9.2 °F 17.6 °F 80% 30.26 in 5.0 mi NNW 17.3 mph 29.9 mph N/A   Haze
4:33 PM 23.0 °F 7.6 °F 17.6 °F 80% 30.27 in 5.0 mi NNW 21.9 mph 26.5 mph N/A   Haze
4:54 PM 23.0 °F 8.3 °F 17.6 °F 80% 30.29 in 10.0 mi NNW 19.6 mph 26.5 mph N/A   Overcast
5:14 PM 21.2 °F 6.4 °F 17.6 °F 86% 30.29 in 10.0 mi NNW 18.4 mph 25.3 mph N/A   Overcast
5:34 PM 21.2 °F 6.4 °F 17.6 °F 86% 30.29 in 7.0 mi NNW 18.4 mph 25.3 mph N/A   Overcast
5:54 PM 21.2 °F 7.8 °F 17.6 °F 86% 30.30 in 10.0 mi NNW 15.0 mph 24.2 mph N/A   Overcast
6:13 PM 21.2 °F 6.8 °F 17.6 °F 86% 30.30 in 10.0 mi NNW 17.3 mph 23.0 mph N/A   Overcast
6:34 PM 21.2 °F 7.8 °F 17.6 °F 86% 30.31 in 10.0 mi NNW 15.0 mph 20.7 mph N/A   Overcast
6:54 PM 21.2 °F 7.3 °F 15.8 °F 80% 30.32 in 10.0 mi NNW 16.1 mph 23.0 mph N/A   Overcast
7:13 PM 21.2 °F 8.3 °F 15.8 °F 80% 30.33 in 10.0 mi NNW 13.8 mph 23.0 mph N/A   Overcast
7:34 PM 21.2 °F 6.8 °F 15.8 °F 80% 30.34 in 10.0 mi NNW 17.3 mph 25.3 mph N/A   Overcast
7:53 PM 21.2 °F 6.8 °F 15.8 °F 80% 30.33 in 10.0 mi NNW 17.3 mph 20.7 mph N/A   Overcast
8:14 PM 19.4 °F 4.5 °F 15.8 °F 86% 30.33 in 10.0 mi North 17.3 mph - N/A   Overcast
8:33 PM 19.4 °F 5.0 °F 15.8 °F 86% 30.33 in 10.0 mi North 16.1 mph - N/A   Overcast
8:54 PM 19.4 °F 5.0 °F 15.8 °F 86% 30.33 in 10.0 mi NNW 16.1 mph 20.7 mph N/A   Overcast
9:14 PM 19.4 °F 5.5 °F 15.8 °F 86% 30.35 in 10.0 mi NNW 15.0 mph - N/A   Overcast
9:33 PM 19.4 °F 7.2 °F 15.8 °F 86% 30.35 in 10.0 mi NNW 11.5 mph - N/A   Overcast
9:54 PM 19.4 °F 6.0 °F 15.8 °F 86% 30.36 in 10.0 mi NNW 13.8 mph 17.3 mph N/A   Overcast
10:14 PM 19.4 °F 5.5 °F 15.8 °F 86% 30.36 in 10.0 mi NNW 15.0 mph - N/A   Overcast
10:34 PM 19.4 °F 6.6 °F 15.8 °F 86% 30.36 in 10.0 mi NNW 12.7 mph - N/A   Overcast
10:54 PM 19.4 °F 6.6 °F 15.8 °F 86% 30.36 in 10.0 mi NNW 12.7 mph - N/A   Overcast
11:14 PM 19.4 °F 7.9 °F 15.8 °F 86% 30.36 in 10.0 mi NNW 10.4 mph - N/A   Overcast
11:34 PM 19.4 °F 7.9 °F 15.8 °F 86% 30.36 in 10.0 mi NNW 10.4 mph - N/A   Overcast
11:54 PM 19.4 °F 8.6 °F 15.8 °F 86% 30.37 in 10.0 mi NNW 9.2 mph - N/A   Overcast